Location: Fort Worth, Tx
(32.7431°N, 97.3695°W)
Time: 12:45:36
(UTC-05:00)

Vanguard 1 Rocket - Visible Passes

Search period start: 07 February 2023 00:00
Search period end: 17 February 2023 00:00
Orbit: 651 x 4224 km, 34.3° (Epoch: 06 February)

Date Brightness Start Highest point End Pass type
(mag) Time Alt. Az. Time Alt. Az. Time Alt. Az.
07 Feb 11.6 19:50:49 10° W 20:09:52 40° SW 20:32:32 10° SSE visible
07 Feb 12.1 22:36:52 10° WSW 22:40:13 10° SW 22:43:34 10° SW visible
08 Feb 11.9 21:10:48 10° W 21:26:10 21° SW 21:42:28 10° S visible
09 Feb 11.9 19:54:16 10° W 20:11:50 33° SW 20:32:54 10° SSE visible
10 Feb 12.1 21:16:59 10° WSW 21:28:15 15° SW 21:40:09 10° SSW visible
11 Feb 12.0 19:58:16 10° W 20:13:54 26° SW 20:32:37 10° S visible
13 Feb 12.1 20:03:13 10° W 20:16:09 19° SW 20:31:19 10° S visible
15 Feb 12.3 20:10:24 10° WSW 20:18:37 13° SW 20:27:45 10° SSW visible
